Regional Weather Roundup
Issued by NWS

Home | Current Version | Previous Version | Text Only | Print | Product List | Glossary Off
Versions: 1 2 3 4 5 6 7 8 9 10 11 12 13 14 15 16 17 18 19 20 21 22 23 24 25 26 27

000
ASUS45 KBOU 151207
RWRCO

WEATHER ROUNDUP FOR COLORADO
NATIONAL WEATHER SERVICE DENVER/BOULDER CO
500 AM MST SUN JAN 15 2017

NOTE: "FAIR" INDICATES FEW OR NO CLOUDS BELOW 12000 FEET WITH NO
SIGNIFICANT WEATHER AND/OR OBSTRUCTIONS TO VISIBILITY.

COZ001>005-013-030-031-151300-
...NORTHWEST COLORADO...

CITY           SKY/WX    TMP DP  RH WIND       PRES   REMARKS
CRAIG          CLOUDY    26  23  88 NE3       30.14F
HAYDEN         CLOUDY    25  21  86 NE5       30.12S WCI  19
MEEKER         CLOUDY    30  26  85 NE3       30.10F
MOUNT WERNER   NOT AVBL
STEAMBOAT SPGS CLOUDY    22  22  96 CALM      30.12S
WALDEN           N/A    N/A N/A N/A CALM      30.14F VSB 1/2
$$

COZ006>008-011-151300-
...WEST CENTRAL VALLEYS...

CITY           SKY/WX    TMP DP  RH WIND       PRES   REMARKS
GRAND JUNCTION FAIR      34  32  92 CALM      30.04F
MONTROSE       CLOUDY    32  32 100 CALM      30.05F FOG
EAGLE          CLOUDY    29  26  89 SE5       30.12F WCI  24
RIFLE          CLOUDY    32  30  92 SE3       30.07F
DELTA          CLOUDY    38  37  96 CALM      30.05F
NUCLA          FAIR      34  32  93 NW5       30.02F WCI  30
$$

COZ017>023-064>068-151300-
...SOUTHWEST COLORADO...

CITY           SKY/WX    TMP DP  RH WIND       PRES   REMARKS
DURANGO        FAIR      34  32  92 SW9       29.98F WCI  27
CORTEZ         MOCLDY    41  38  89 CALM      29.96S
PAGOSA SPRINGS LGT SNOW  34  34 100 NE3       30.02F
TELLURIDE      CLOUDY    34  28  77 E6        29.99F WCI  29
WOLF CREEK PAS   N/A     23  23 100 CALM      30.14S
$$

COZ009-010-012-014-032>034-037-058>063-151300-
...CENTRAL COLORADO...

CITY           SKY/WX    TMP DP  RH WIND       PRES   REMARKS
ASPEN          CLOUDY    24  23  96 CALM      30.05F
BUENA VISTA    CLOUDY    30  26  84 N6        30.09F WCI  24
COPPER MTN     NOT AVBL
BERTHOUD PASS  NOT AVBL
COTTONWOOD PAS FAIR      30  27  86 CALM      30.10F
GUNNISON       CLOUDY    16  14  92 CALM      30.10F FOG
KREMMLING      CLOUDY   N/A N/A N/A CALM      30.16S FOG
LEADVILLE      CLOUDY    23  20  88 NE7       30.09F WCI  15
MONARCH PASS   LGT SNOW  27  23  86 CALM      30.23F
SALIDA         CLOUDY    32  31  96 CALM      30.17F
SUNLIGHT       FOG       23  23 100 E5        30.12F VSB 1   WCI  17
WILKERSON PASS CLOUDY    27  25  93 CALM      30.15F
$$

COZ069>075-151300-
...SAN LUIS VALLEY/SANGRE DE CRISTO MOUNTAINS...

CITY           SKY/WX    TMP DP  RH WIND       PRES   REMARKS
ALAMOSA        LGT SNOW  26  25  96 CALM      30.04F VSB 1
LA VETA PASS   NOT AVBL
SAGUACHE       CLOUDY    30  27  86 NW13      30.05F WCI  20
$$

COZ035-036-038>040-151300-
...NORTHERN COLORADO FRONT RANGE...

CITY           SKY/WX    TMP DP  RH WIND       PRES   REMARKS
DENVER INTL AP CLOUDY    25  22  88 W7        30.12F FOG     WCI  17
DMNS CITY PARK   N/A     27  25  95 E8        30.12F WCI  18
AURORA         CLOUDY    25  24  99 S6        30.13F FOG     WCI  18
FRONT RANGE AP FAIR      28  27  93 W7        30.12F FOG     WCI  21
ERIE MUNI ARPT FAIR      22  21  95 CALM      30.14F FOG
BOULDER MUN AP FAIR      28  27  93 CALM      30.13F
CENTENNIAL     CLOUDY    25  23  92 SW6       30.11F WCI  18
BROOMFIELD     FAIR      30  28  93 CALM      30.13F FOG
FORT COLLINS   FAIR      23  21  93 CALM      30.15F
LONGMONT       FAIR      24  21  89 N3        30.16F
$$

COZ041-046-047-076>085-087-088-151300-
...PIKES PEAK/PALMER DIVIDE AND SOUTHERN FOOTHILLS...

CITY           SKY/WX    TMP DP  RH WIND       PRES   REMARKS
COLO. SPRINGS  CLOUDY    28  22  78 CALM      30.11S
A. F. ACADEMY  MOCLDY    29  24  81 N6        30.09S WCI  23
SCHRIEVER AFB  NOT AVBL
ELLICOTT       CLOUDY   N/A N/A N/A E3        30.09S
FALCON         CLOUDY    30  25  82 E5        30.11R WCI  25
FORT CARSON    NOT AVBL
LIMON          CLOUDY    27  25  92 NW5       30.12F WCI  22
MONUMENT HILL  CLOUDY    27  25  93 W5        30.11F FOG     WCI  21
TRINIDAD       SNOW      30  28  92 NW3       30.09F VSB 1/2
$$

COZ042>045-048>051-090-091-151300-
...NORTHEAST COLORADO...

CITY           SKY/WX    TMP DP  RH WIND       PRES   REMARKS
GREELEY ARPT   FAIR      22  21  96 CALM      30.17R FOG
AKRON          CLOUDY    27  21  78 NW6       30.14R WCI  20
BURLINGTON     CLOUDY    33  26  75 S3        30.13F
WRAY           NOT AVBL
STERLING       FAIR      19  18  93 W3        30.16R
HOLYOKE        FAIR      21  18  86 S3        30.19R
FORT MORGAN    MOCLDY    21  19  90 CALM      30.15F
$$

COZ086-089-092>099-151300-
...SOUTHEAST COLORADO...

CITY           SKY/WX    TMP DP  RH WIND       PRES   REMARKS
PUEBLO         CLOUDY    30  24  78 CALM      30.12F
LA JUNTA       CLOUDY    32  28  85 N6        30.11F WCI  26
LAMAR          FRZ RAIN  31  29  92 E8        30.13S FOG     WCI  23
SPRINGFIELD      N/A     29  29 100 E7        30.12S WCI  22
$$




USA.gov is the U.S. government's official web portal to all federal, state and local government web resources and services.